Weather History for Goodland, KS

Change the Weather History Date:

Monday, November 26, 2012

  Actual Average Record
Temperature  
Mean Temperature 29 °F 34 °F  
Max Temperature 38 °F 47 °F 72 °F (1960)
Min Temperature 19 °F 21 °F -7 °F (1952)
Degree Days  
Heating Degree Days 36 31  
Month to date heating degree days 531 651  
Since 1 July heating degree days 1065 1191  
Cooling Degree Days 0 0  
Month to date cooling degree days 0 0  
Year to date cooling degree days 1338 941  
Moisture  
Dew Point 18 °F    
Average Humidity 72    
Maximum Humidity 91    
Minimum Humidity 52    
Precipitation  
Precipitation 0.00 in 0.02 in 0.46 in (1935)
Month to date precipitation T 0.64  
Year to date precipitation 9.02 19.13  
Snow  
Snow 0.00 in 0.10 in - ()
Month to date snowfall T 3.8  
Since 1 July snowfall 0.5 6.4  
Since 1 September snowfall 0.5 6.4  
Snow Depth 0.00 in    
Sea Level Pressure  
Sea Level Pressure 30.35 in    
Wind  
Wind Speed 9 mph (NNE)    
Max Wind Speed 17 mph    
Max Gust Speed 20 mph    
Visibility 10 miles    
Events      
T = Trace of Precipitation, MM = Missing Value Source: NWS Daily Summary

Daily Weather History Graph

Daily Weather History Graph

Search for Another Location

Airport:

Trip Planner

Search our weather history database for the weather conditions in past years. The results will help you decide how hot, cold, wet, or windy it might be!

Date:

Astronomy

Nov. 26, 2012 Rise Set
Actual Time 6:43 AM MST 4:25 PM MST
Civil Twilight 6:13 AM MST 4:54 PM MST
Nautical Twilight 5:40 AM MST 5:27 PM MST
Astronomical Twilight 5:08 AM MST 5:59 PM MST
Moon 3:18 PM MST (11/26) 4:55 AM MST (11/26)
Length of Visible Light 10h 40m
Length of Day
9h 42m
Waxing Gibbous, 97% of the Moon is Illuminated
Nov 26
Waxing Gibbous
Nov 28
Full
Dec 6
Last Quarter
Dec 13
New
Dec 19
First Quarter

Hourly Weather History & Observations

Time (MST) Temp. Windchill Dew Point Humidity Pressure Visibility Wind Dir Wind Speed Gust Speed Precip Events Conditions
12:53 AM 21.9 °F 13.4 °F 18.0 °F 85% 30.06 in 10.0 mi NNE 6.9 mph - N/A   Clear
1:53 AM 21.0 °F 14.6 °F 18.0 °F 88% 30.09 in 10.0 mi North 4.6 mph - N/A   Clear
2:53 AM 19.9 °F 13.4 °F 17.1 °F 89% 30.13 in 10.0 mi NNW 4.6 mph - N/A   Clear
3:53 AM 19.9 °F 12.1 °F 17.1 °F 89% 30.16 in 10.0 mi North 5.8 mph - N/A   Clear
4:22 AM 23.0 °F 14.7 °F 17.6 °F 80% 30.13 in 10.0 mi NNE 6.9 mph - N/A   Mostly Cloudy
4:53 AM 25.0 °F 16.3 °F 19.9 °F 81% 30.21 in 10.0 mi NNE 8.1 mph - N/A   Overcast
5:53 AM 26.1 °F 15.6 °F 19.9 °F 78% 30.27 in 10.0 mi NE 11.5 mph - N/A   Overcast
6:53 AM 27.0 °F 18.0 °F 19.0 °F 72% 30.31 in 10.0 mi NNE 9.2 mph - N/A   Overcast
7:53 AM 28.0 °F 17.0 °F 19.9 °F 72% 30.36 in 10.0 mi NNE 13.8 mph - N/A   Overcast
8:53 AM 30.0 °F 20.0 °F 21.0 °F 69% 30.41 in 10.0 mi NE 12.7 mph - N/A   Overcast
9:53 AM 30.9 °F 20.2 °F 21.0 °F 67% 30.43 in 10.0 mi NNE 15.0 mph - N/A   Overcast
10:16 AM 32.0 °F 22.5 °F 21.2 °F 64% 30.36 in 10.0 mi NNE 12.7 mph - N/A   Overcast
10:32 AM 33.8 °F 25.8 °F 21.2 °F 60% 30.36 in 10.0 mi North 10.4 mph - N/A   Overcast
10:53 AM 32.0 °F 23.0 °F 21.9 °F 66% 30.43 in 10.0 mi NNE 11.5 mph - N/A   Overcast
11:16 AM 33.8 °F 27.0 °F 21.2 °F 60% 30.36 in 10.0 mi North 8.1 mph - N/A   Overcast
11:53 AM 34.0 °F 29.8 °F 21.0 °F 59% 30.42 in 10.0 mi NE 4.6 mph - N/A   Mostly Cloudy
12:13 PM 33.8 °F 26.4 °F 19.4 °F 56% 30.35 in 10.0 mi North 9.2 mph - N/A   Mostly Cloudy
12:53 PM 35.1 °F 26.9 °F 19.9 °F 54% 30.42 in 10.0 mi North 11.5 mph 18.4 mph N/A   Overcast
1:32 PM 35.6 °F 28.0 °F 19.4 °F 52% 30.34 in 10.0 mi NNE 10.4 mph - N/A   Scattered Clouds
1:53 PM 36.0 °F 29.6 °F 19.9 °F 52% 30.42 in 10.0 mi NNW 8.1 mph - N/A   Scattered Clouds
2:53 PM 36.0 °F 31.1 °F 19.9 °F 52% 30.42 in 10.0 mi NNE 5.8 mph - N/A   Overcast
3:53 PM 34.0 °F 28.8 °F 19.0 °F 54% 30.44 in 10.0 mi ENE 5.8 mph - N/A   Overcast
4:53 PM 30.9 °F 27.5 °F 18.0 °F 59% 30.43 in 10.0 mi ENE 3.5 mph - N/A   Overcast
5:53 PM 28.0 °F - 18.0 °F 66% 30.44 in 10.0 mi Calm Calm - N/A   Partly Cloudy
6:53 PM 21.0 °F 14.6 °F 12.9 °F 71% 30.47 in 10.0 mi SSE 4.6 mph - N/A   Clear
7:53 PM 19.0 °F 8.2 °F 12.0 °F 74% 30.48 in 10.0 mi South 9.2 mph - N/A   Clear
8:53 PM 19.9 °F 7.9 °F 12.9 °F 74% 30.46 in 10.0 mi South 11.5 mph - N/A   Clear
9:53 PM 21.9 °F 11.0 °F 15.1 °F 75% 30.45 in 10.0 mi South 10.4 mph - N/A   Clear
10:53 PM 21.9 °F 11.0 °F 15.1 °F 75% 30.43 in 10.0 mi South 10.4 mph - N/A   Clear
11:53 PM 21.0 °F 7.6 °F 14.0 °F 74% 30.41 in 10.0 mi SSW 15.0 mph - N/A   Clear